Regional Weather Roundup
Issued by NWS

Home | Current Version | Previous Version | Graphics & Text | Print | Product List | Glossary On
Versions: 1 2 3 4 5 6 7 8 9 10 11 12 13 14 15 16 17 18 19 20 21 22 23 24 25 26 27 28 29 30 31 32 33 34 35 36 37 38 39 40 41 42 43 44 45 46 47 48 49 50
000
ASUS43 KDMX 300103
RWRIA

WEATHER ROUNDUP FOR IOWA
NATIONAL WEATHER SERVICE DES MOINES IA
800 PM CDT FRI APR 29 2016

NOTE: "FAIR" INDICATES FEW OR NO CLOUDS BELOW 12,000 FEET WITH NO
SIGNIFICANT WEATHER AND/OR OBSTRUCTIONS TO VISIBILITY.

* - THESE STATIONS ARE NOT NWS STATIONS...THUS NOT UNDER NWS
QUALITY CONTROL.  THEY ALSO DO NOT REPORT WEATHER SUCH
AS PRECIPITATION OR FOG.

IAZ001>003-012>014-020>022-031>034-043>046-300200-
   NORTHWEST IOWA

CITY           SKY/WX    TMP DP  RH WIND       PRES   REMARKS
CARROLL *      CLOUDY    46  41  81 E14G21    30.02R
CHEROKEE *     CLOUDY    45  42  87 E10G17    30.03F
DENISON *      CLOUDY    46  41  81 E15       29.99R
LE MARS *      CLOUDY    48  41  76 NE9       30.03F
ORANGE CITY *  PTCLDY    46  41  81 E10G17    30.03S
SHELDON *      CLOUDY    48  43  81 E12       30.03S
SIOUX CITY     CLOUDY    48  39  71 E14       30.02R
SPENCER        CLOUDY    47  39  74 E12       30.06S
STORM LAKE *   CLOUDY    45  39  81 E17       30.03S
$$

IAZ055>058-069>071-079>083-090>094-300200-
   SOUTHWEST IOWA

CITY           SKY/WX    TMP DP  RH WIND       PRES   REMARKS
ATLANTIC *     CLOUDY    48  43  81 E10       29.98S
AUDUBON *      CLOUDY    46  41  81 E15       30.00F
CLARINDA *       N/A    N/A N/A N/A MISG        N/A
COUNCIL BLFS * CLOUDY    48  43  81 E17       29.97S
CRESTON *      CLOUDY    48  43  81 E17G23    29.98F
HARLAN  *      CLOUDY    46  43  87 E15       30.02R
LAMONI         CLOUDY    47  45  93 NE13      29.95F
RED OAK *      CLOUDY    50  45  81 NE16      29.95F
SHENANDOAH *   CLOUDY    50  46  87 NE20      29.94R
$$

IAZ047>049-059>061-072>074-084-300200-
   CENTRAL IOWA

CITY           SKY/WX    TMP DP  RH WIND       PRES   REMARKS
AMES           CLOUDY    48  41  76 E9        30.04F
ANKENY *       CLOUDY    48  43  81 MISG      30.04R
BOONE *        CLOUDY    46  41  81 E15       30.03F
CHARITON *     CLOUDY    48  43  81 E13       30.01F
DES MOINES     CLOUDY    50  40  68 E10       30.03S
GRINNELL*      CLOUDY    48  43  81 NE12      30.06R
KNOXVILLE *    CLOUDY    48  43  81 E10       30.02S
MARSHALLTOWN   CLOUDY    47  41  80 E12       30.05S
NEWTON *       CLOUDY    48  45  87 E10       30.05R
PELLA *        CLOUDY    49  42  78 E7        30.06S
$$

IAZ004>006-015-016-023>025-035-036-300200-
   NORTH CENTRAL IOWA

CITY           SKY/WX    TMP DP  RH WIND       PRES   REMARKS
ALGONA *       CLOUDY    46  41  81 E9G15     30.06F
CLARION *      CLOUDY    46  41  81 E13G20    30.06S
ESTHERVILLE    CLOUDY    47  40  76 E14       30.06F
FORT DODGE *   CLOUDY    46  37  71 E12       30.06S
MASON CITY     CLOUDY    47  40  76 E10       30.08F
FOREST CITY *  CLOUDY    46  39  76 NE7       30.07F
WEBSTER CITY * CLOUDY    46  41  81 E14       30.04S
IOWA FALLS *   CLOUDY    48  41  76 E12       30.08R
$$

IAZ007>011-017>019-026>030-037>042-050>054-066-300200-
   NORTHEAST IOWA

CITY           SKY/WX    TMP DP  RH WIND       PRES   REMARKS
CEDAR RAPIDS   CLOUDY    48  43  82 E10       30.07R
CHARLES CITY * CLOUDY    48  43  81 NE5       30.09F
DECORAH *      CLOUDY    48  39  71 E6        30.09F
DUBUQUE        CLOUDY    47  40  76 NE7       30.09
MONTICELLO *   CLOUDY    48  41  76 E7        30.09S
OELWEIN *      CLOUDY    48  41  76 E9        30.08F
WATERLOO       CLOUDY    48  40  73 E10       30.07F
$$

IAZ064-065-067-068-078-300200-
   EAST CENTRAL IOWA

CITY           SKY/WX    TMP DP  RH WIND       PRES   REMARKS
DAVENPORT      CLOUDY    48  41  76 E9        30.10F
IOWA CITY      CLOUDY    49  42  77 E9        30.09S
MT. PLEASANT * CLOUDY    52  46  82 NE10      30.05F
MUSCATINE *    CLOUDY    52  43  71 E10       30.07F
QUAD CITIES    CLOUDY    50  41  71 E10       30.08S
$$

IAZ062-063-075>077-085>089-095>099-300200-
   SOUTHEAST IOWA

CITY           SKY/WX    TMP DP  RH WIND       PRES   REMARKS
BURLINGTON     CLOUDY    50  44  80 NE13      30.04S
FAIRFIELD *    CLOUDY    50  43  76 E7G13     30.04F
FORT MADISON * CLOUDY    50  45  81 NE13      30.04F
KEOKUK *       CLOUDY    52  46  82 NE12      30.00F
OSKALOOSA *    CLOUDY    48  43  81 E10       30.05S
OTTUMWA        CLOUDY    49  43  80 E9        30.04S
WASHINGTON *   CLOUDY    50  46  87 NE14      30.07S
$$

ABBREVIATIONS USED IN REMARKS
   TC - TEMPERATURES IN CELSIUS
  WCI - WIND CHILL INDEX
   HX - HEAT INDEX
  VSB - VISIBILITY
$$




USA.gov is the U.S. government's official web portal to all federal, state and local government web resources and services.